Vorticity
nan nan nan nan nan nan nan nan nan nan nan nan nan nan nan nan nan nan nan nan nan nan nan nan nan nan nan nan nan nan nan nan nan nan nan nan nan nan nan nan nan nan nan nan
nan 10 5 7 8 9 10 8 8 8 11 9 6 10 18 14 13 16 13 10 6 7 9 11 10 5 4 8 7 8 7 6 5 4 6 9 11 10 9 8 11 12 9 nan
nan 9 8 7 5 12 10 7 6 7 9 7 9 12 12 12 12 21 21 13 11 8 10 11 12 3 2 2 7 13 10 9 7 5 4 6 6 9 9 8 11 14 10 nan
nan 8 9 4 9 11 9 11 7 9 8 5 13 10 7 8 9 7 17 20 14 12 11 12 10 7 6 6 8 12 9 8 8 8 4 4 3 5 7 9 9 10 10 nan
nan 8 5 9 14 8 8 9 13 13 11 9 9 9 6 6 2 -1 7 15 20 18 17 15 12 12 8 6 5 7 11 10 10 8 6 6 4 5 8 9 10 8 10 nan
nan 7 9 9 11 11 8 8 8 9 10 9 5 10 6 5 5 3 5 8 16 24 22 18 15 12 10 8 11 10 10 9 10 9 9 6 8 6 5 6 8 9 9 nan
nan 12 10 11 7 11 8 6 9 8 6 8 11 8 4 5 8 9 9 11 18 23 19 14 14 10 15 10 7 5 11 11 10 9 8 8 7 8 8 6 6 8 9 nan
nan 12 10 13 9 7 9 10 9 9 9 10 11 8 4 7 8 13 16 14 13 12 12 10 10 11 13 14 9 5 6 9 11 8 9 10 8 7 9 8 7 8 9 nan
nan 5 8 9 12 15 9 8 9 11 8 6 8 10 5 7 7 10 13 13 11 10 12 10 9 10 14 19 7 7 7 6 8 11 10 9 9 8 8 8 7 8 8 nan
nan 6 8 7 6 8 15 12 8 6 7 10 8 8 14 9 6 5 8 10 10 8 9 10 9 8 12 17 18 12 9 4 2 5 8 9 11 11 7 10 10 7 8 nan
nan 9 8 6 9 9 11 5 7 7 9 12 10 9 11 11 6 4 7 10 10 9 9 9 7 7 9 12 18 18 10 7 6 5 8 8 7 9 13 15 8 9 10 nan
nan 9 8 8 9 10 8 12 8 11 11 8 10 6 9 12 5 7 7 9 11 11 8 7 7 9 9 10 11 12 12 12 11 11 10 9 13 9 5 8 12 13 11 nan
nan 7 9 6 9 10 10 8 10 9 11 8 4 5 7 8 4 8 9 8 10 11 13 12 8 7 9 9 8 8 13 17 15 13 11 11 13 12 10 6 9 11 10 nan
nan 11 7 7 9 13 13 8 6 4 6 7 6 8 7 4 7 11 13 9 9 11 14 13 9 7 8 9 8 9 10 20 22 12 9 10 10 12 11 13 12 12 10 nan
nan 11 10 11 10 7 8 10 7 5 7 2 8 13 6 8 14 17 17 12 9 8 8 10 9 7 8 8 8 8 9 14 18 14 11 12 11 12 13 11 11 12 10 nan
nan 13 10 8 11 9 7 8 8 11 11 10 9 13 12 13 17 13 11 10 7 6 5 6 6 7 8 7 9 8 8 8 11 13 11 10 12 12 16 12 9 10 12 nan
nan 14 8 5 8 10 16 14 11 10 10 13 13 17 14 8 8 6 6 7 5 5 5 6 7 6 7 8 7 7 7 8 9 8 7 8 11 13 14 14 14 11 12 nan
nan 8 9 13 10 7 8 18 18 9 11 13 12 10 9 8 6 3 4 5 5 7 5 5 5 7 8 8 9 10 10 9 8 8 9 8 7 9 13 15 15 14 13 nan
nan 12 8 13 5 11 14 10 11 13 8 11 9 7 5 9 11 12 12 5 2 2 7 7 7 6 6 8 11 10 9 8 7 8 7 8 8 7 9 11 12 15 15 nan
nan 12 11 10 9 8 11 7 11 13 11 10 7 6 4 8 10 5 9 10 0 2 8 8 7 8 8 8 7 8 8 7 10 9 7 8 10 9 7 9 11 13 14 nan
nan 10 14 9 8 9 7 11 13 7 12 10 5 5 8 7 5 3 4 8 8 7 7 9 10 9 8 9 11 10 9 10 8 8 10 10 9 12 10 8 10 11 12 nan
nan 10 12 9 12 9 9 12 6 12 10 4 4 5 7 7 6 7 9 9 10 10 12 11 11 10 11 11 11 9 10 10 10 10 8 8 9 13 12 9 9 12 11 nan
nan 8 11 8 11 12 7 7 10 10 6 6 3 2 8 8 8 8 10 11 11 11 11 12 10 10 12 12 10 9 11 12 11 9 9 9 9 9 12 12 10 11 12 nan
nan 10 9 11 9 8 7 5 6 8 6 6 5 5 7 9 9 10 11 11 11 13 11 11 11 12 11 12 11 11 10 13 13 11 9 8 7 8 10 12 11 10 10 nan
nan 13 8 10 6 10 12 8 4 3 7 9 9 8 8 10 11 12 12 12 12 12 11 11 11 11 10 10 12 11 11 12 12 11 10 10 10 9 10 11 12 12 8 nan
nan nan nan nan nan nan nan nan nan nan nan nan nan nan nan nan nan nan nan nan nan nan nan nan nan nan nan nan nan nan nan nan nan nan nan nan nan nan nan nan nan nan nan nan
CAPE
0 0 0 0 0 0 0 0 0 0 0 0 0 0 0 0 377 604 995 926 722 839 1086 1314 1370 1290 1244 1561 1642 1872 1840 2057 1962 1860 1601 1541 1429 1979 847 429 978 1450 1880 1684
0 0 0 0 0 0 0 0 0 0 0 0 0 0 0 0 0 255 776 959 968 833 599 641 1293 1390 837 1057 1636 1858 2103 2249 2057 1918 1819 1671 1721 1557 1518 1753 1698 1897 1648 1786
0 0 0 0 0 0 0 0 0 0 0 0 0 0 0 0 0 0 186 861 1039 1092 792 526 1080 1511 1303 1163 1665 1820 2214 2273 2201 2141 1954 1551 1433 1339 1409 1410 1511 1658 1722 1602
0 0 0 0 0 0 0 0 0 0 0 0 0 0 0 0 0 0 0 76 581 1093 1171 865 895 1395 1480 1559 461 1460 2129 2217 2154 2142 1895 1937 2004 1967 1550 1902 1767 1756 1666 1694
0 0 0 0 0 0 0 0 0 0 0 0 0 0 0 156 283 323 6 233 54 105 580 1041 1111 1189 1515 1537 1112 1536 1810 1858 2044 2081 2157 2178 2102 1798 1707 1463 1615 1693 1724 1575
0 0 0 0 0 0 0 0 0 0 0 0 0 0 0 380 312 534 629 804 639 123 290 720 1056 1214 1441 1562 1479 1326 1710 1799 2032 2022 2128 2135 2170 2044 1602 1561 1518 1377 1408 1420
0 0 0 0 0 0 0 0 0 0 0 0 0 0 0 259 571 676 798 856 456 359 681 920 1154 1332 1499 1589 1579 1524 1310 1731 1890 1924 2042 2118 2130 2080 1900 1923 1536 1369 1200 1233
0 0 0 0 0 0 0 0 0 0 0 0 0 0 4 431 627 940 839 690 716 756 1041 1153 1330 1535 1372 1496 1613 1447 1730 2029 1669 1674 1963 2148 2186 1983 1793 1835 1651 1532 1276 1111
0 0 0 0 0 0 0 0 0 0 0 0 0 1 140 526 724 1071 1096 992 1049 1063 1148 1258 1379 1513 1037 1673 1725 1687 1756 1493 524 988 1946 1885 1862 1955 1886 2026 1785 1692 1639 1383
0 0 0 0 0 0 0 0 0 0 0 0 0 0 0 660 737 1140 1234 1189 1253 1283 1233 1315 1293 1089 1176 1246 1735 1798 1231 850 755 875 932 1566 1664 1982 1982 2111 1879 1725 1694 918
0 0 0 0 0 0 0 0 0 0 0 0 0 0 0 196 751 798 834 1106 1305 1349 969 663 655 617 672 1376 1854 1817 1812 1707 1863 1921 1865 1808 1799 1309 1987 1938 1937 1775 1634 876
0 0 0 0 0 0 0 0 0 0 0 0 0 0 0 605 490 322 820 1115 1470 1348 1079 578 427 451 654 640 606 475 924 2036 2224 2150 2165 2006 2055 1970 992 836 1027 1807 1729 1335
0 0 0 0 0 0 0 0 0 0 0 0 0 0 0 79 53 40 547 1241 1465 1294 1209 847 524 723 496 541 938 928 1100 1318 1121 2657 2527 2547 2542 2423 1230 942 1244 2056 1961 1874
0 0 0 0 0 0 0 0 0 0 0 0 0 0 0 0 124 115 99 1292 1289 1058 816 825 724 611 511 786 1056 992 1032 1583 991 1717 2868 2680 1802 1679 1899 2212 2054 1677 2088 2064
0 0 0 0 0 0 0 0 0 0 0 0 0 0 0 71 93 174 270 881 736 566 450 445 418 208 92 180 279 678 762 1853 957 1473 1630 948 630 1629 2247 2364 1985 1692 1987 2046
0 0 0 0 0 0 0 0 0 0 0 0 0 0 5 0 4 87 77 112 10 14 0 0 0 0 0 0 31 213 320 1102 1875 1891 1693 1938 2450 2833 2821 2196 1656 1385 1889 1924
0 0 0 0 0 0 0 0 0 0 0 0 0 0 0 0 0 0 0 0 0 0 0 0 0 0 0 0 0 0 31 57 1142 1460 1652 1841 2211 2451 2772 2840 2437 2304 1967 1949
0 0 0 0 0 0 0 0 0 0 0 0 0 0 0 0 0 0 0 0 0 0 24 16 5 7 0 0 0 0 0 49 358 850 1204 1459 1715 1862 2234 2338 2100 2046 2208 2425
0 0 0 0 0 0 0 0 0 0 0 0 0 0 0 0 0 0 0 11 3 0 0 0 0 0 2 0 0 0 4 7 30 70 154 815 1590 1719 1629 1768 1965 2098 1994 1942
0 0 0 0 0 0 0 0 0 0 0 0 0 0 0 0 0 7 0 0 0 0 0 0 0 0 0 0 0 0 0 3 27 54 61 301 876 1763 1540 1367 1622 1829 2012 1714
0 0 0 0 0 0 0 0 0 0 0 0 0 0 0 0 0 0 0 0 0 0 0 0 0 0 0 0 0 0 0 2 32 66 62 218 412 844 1696 1298 1399 1565 1826 1831
0 0 0 0 0 0 0 0 0 0 0 0 0 0 0 0 0 0 0 0 0 0 0 0 0 0 0 0 0 0 0 46 176 4 99 232 343 642 896 1275 1153 1374 1715 1761
0 0 0 0 0 0 0 0 0 0 0 0 0 0 0 0 0 0 0 0 0 0 0 0 0 0 0 0 0 0 117 119 1 0 48 238 162 256 830 1373 1145 1019 1424 1235
0 0 0 0 0 0 0 0 0 0 0 0 0 0 0 0 0 0 0 0 0 0 0 0 0 0 0 0 0 0 0 0 0 0 26 77 25 14 41 302 911 963 920 968
0 0 0 0 0 0 0 0 0 0 0 0 0 0 0 0 0 0 0 0 0 0 0 0 1 0 0 0 0 0 0 0 0 0 0 0 0 0 0 18 460 961 728 690
0 0 0 0 0 0 0 0 0 0 0 0 0 0 0 0 0 0 1 0 1 7 5 4 2 3 1 2 0 0 0 0 0 0 0 0 0 0 0 0 39 466 54 5